GW0658 Weather Reports


Display with metric or nautical units.
time (UTC)temp
F
wind
direction
speed
MPH
gust
MPH
rain 1hr
in
rain 24hr
in
rain mn
in
humidity
%
barometer
mb
20260505153036 41 0 0.0 0.0 0.00 0.78 0.07 97 1014.2
20260505152518 41 0 0.0 0.0 0.00 0.78 0.07 97 1014.2
20260505152021 41 0 0.0 0.0 0.00 0.78 0.07 97 1014.2
20260505151536 41 0 0.0 0.0 0.00 0.78 0.07 97 1014.1
20260505151021 41 0 0.0 0.0 0.00 0.78 0.07 97 1014.2
20260505150520 41 0 0.0 0.0 0.00 0.78 0.07 96 1014.2
20260505140518 39 0 0.0 0.0 0.00 0.78 0.07 96 1013.7
20260505125018 39 0 0.0 0.0 0.01 0.82 0.07 96 1013.5
20260505124550 39 0 0.0 0.0 0.01 0.82 0.07 96 1013.6
20260505124018 39 0 0.0 0.0 0.01 0.82 0.07 96 1013.5
20260505123518 39 0 0.0 0.0 0.01 0.82 0.07 96 1013.4
20260505123049 39 0 0.0 0.0 0.02 0.82 0.07 96 1013.4
20260505122518 39 0 0.0 0.0 0.02 0.82 0.07 96 1013.2
20260505122018 39 0 0.0 0.0 0.02 0.82 0.07 96 1013.3
20260505121616 39 0 0.0 0.0 0.02 0.82 0.07 96 1013.4
20260505121021 39 0 0.0 0.0 0.02 0.82 0.07 96 1013.3
20260505120518 39 0 0.0 0.0 0.02 0.82 0.07 96 1013.2
20260505120042 39 0 0.0 0.0 0.02 0.81 0.06 96 1013.3
20260505115517 39 0 0.0 0.0 0.02 0.81 0.06 96 1013.3
20260505115018 39 0 0.0 0.0 0.02 0.81 0.06 96 1013.3
20260505114541 39 0 0.0 0.0 0.02 0.81 0.06 96 1013.3
20260505114017 39 0 0.0 0.0 0.02 0.81 0.06 96 1013.3
20260505113518 39 0 0.0 0.0 0.03 0.81 0.06 96 1013.2
20260505113046 39 0 0.0 0.0 0.02 0.80 0.05 96 1013.1
20260505112518 39 0 0.0 0.0 0.02 0.80 0.05 96 1013.3
20260505112018 39 0 0.0 0.0 0.02 0.80 0.05 96 1013.3
20260505111539 39 0 0.0 0.0 0.02 0.80 0.05 96 1013.3
20260505111018 39 0 0.0 0.0 0.03 0.80 0.05 96 1013.3
20260505110518 39 0 0.0 0.0 0.03 0.80 0.05 96 1013.4
20260505102019 39 0 0.0 0.0 0.02 0.78 0.03 96 1013.4
20260505101540 39 0 0.0 0.0 0.02 0.78 0.03 96 1013.5
20260505101018 39 0 0.0 0.0 0.01 0.77 0.02 96 1013.7
20260505100518 39 0 0.0 0.0 0.01 0.77 0.02 96 1013.7
20260505100043 40 0 0.0 0.0 0.01 0.77 0.02 96 1013.8
20260505095519 40 0 0.0 0.0 0.01 0.77 0.02 96 1013.9
20260505095019 40 0 0.0 0.0 0.01 0.77 0.02 96 1014.0
20260505094536 40 0 0.0 0.0 0.01 0.77 0.02 96 1014.1
20260505094018 40 0 0.0 0.0 0.01 0.77 0.02 96 1014.0
20260505093517 40 0 0.0 0.0 0.00 0.76 0.01 96 1014.0
20260505093040 40 0 0.0 0.0 0.00 0.76 0.01 96 1014.0
20260505092517 40 0 0.0 0.0 0.00 0.76 0.01 96 1014.0
20260505092018 40 0 0.0 0.0 0.00 0.76 0.01 96 1014.1
20260505091549 40 0 0.0 0.0 0.00 0.76 0.01 96 1014.2
20260505091021 40 0 0.0 0.0 0.00 0.76 0.01 96 1014.1
20260505090518 40 0 0.0 0.0 0.00 0.76 0.01 96 1014.0
20260505090041 40 0 0.0 0.0 0.00 0.76 0.01 96 1014.1
20260505085518 40 0 0.0 0.0 0.00 0.76 0.01 96 1014.1
20260505085022 40 0 0.0 0.0 0.00 0.76 0.01 96 1014.2
20260505084535 41 0 0.0 0.0 0.00 0.76 0.01 96 1014.2
20260505084018 41 0 0.0 0.0 0.00 0.76 0.01 96 1014.3
20260505083519 41 0 0.0 0.0 0.00 0.76 0.01 96 1014.5
20260505083046 41 0 0.0 0.0 0.00 0.76 0.01 96 1014.5
20260505082517 41 0 0.0 0.0 0.00 0.76 0.01 96 1014.5
20260505082018 41 0 0.0 0.0 0.00 0.76 0.01 96 1014.6
20260505081544 41 0 0.0 0.0 0.00 0.76 0.01 96 1014.5
20260505081017 41 0 0.0 0.0 0.00 0.76 0.01 96 1014.5
20260505080517 41 0 0.0 0.0 0.00 0.76 0.01 96 1014.5
20260505080048 41 0 0.0 0.0 0.00 0.76 0.01 96 1014.5
20260505075517 40 0 0.0 0.0 0.01 0.76 0.01 96 1014.5
20260505075018 40 0 0.0 0.0 0.02 0.76 0.01 96 1014.5
20260505074539 40 0 0.0 0.0 0.03 0.76 0.01 96 1014.5
20260505074022 40 0 0.0 0.0 0.04 0.76 0.01 96 1014.5
20260505073517 40 0 0.0 0.0 0.05 0.76 0.01 96 1014.5
20260505073043 40 0 0.0 0.0 0.07 0.76 0.01 96 1014.5
20260505072517 40 0 0.0 0.0 0.08 0.76 0.01 96 1014.4
20260505072019 40 0 0.0 0.0 0.10 0.76 0.01 96 1014.3
20260505071540 40 0 0.0 0.0 0.11 0.76 0.01 96 1014.4
20260505071022 40 0 0.0 0.0 0.11 0.76 0.01 96 1014.4
20260505070519 41 0 0.0 0.0 0.11 0.76 0.01 96 1014.2
20260505070041 41 0 0.0 0.0 0.11 0.75 0.00 96 1014.3
20260505065520 41 0 0.0 0.0 0.11 0.75 0.75 96 1014.3
20260505065019 41 0 0.0 0.0 0.11 0.74 0.74 96 1014.3
20260505064536 41 0 0.0 0.0 0.11 0.73 0.73 96 1014.3
20260505064019 41 0 0.0 0.0 0.10 0.72 0.72 96 1014.4
20260505063520 41 0 0.0 0.0 0.08 0.70 0.70 96 1014.5
20260505063045 41 0 0.0 0.0 0.08 0.69 0.69 96 1014.4
20260505062520 41 0 0.0 0.0 0.06 0.67 0.67 96 1014.5
20260505062026 41 0 0.0 2.0 0.05 0.66 0.66 96 1014.6
20260505061539 41 0 0.0 2.0 0.04 0.65 0.65 96 1014.7
20260505061024 41 0 0.0 2.0 0.04 0.65 0.65 96 1014.7
20260505060519 41 0 0.0 0.0 0.04 0.65 0.65 96 1014.8
20260505060046 41 0 0.0 0.0 0.03 0.64 0.64 96 1014.6
20260505055518 41 0 0.0 0.0 0.03 0.64 0.64 96 1014.5
20260505055018 41 0 0.0 0.0 0.02 0.63 0.63 96 1014.4
20260505054543 41 0 0.0 0.0 0.01 0.62 0.62 96 1014.4
20260505054017 41 0 0.0 0.0 0.01 0.62 0.62 96 1014.3
20260505053519 41 0 0.0 0.0 0.01 0.62 0.62 96 1014.5
20260505053043 41 0 0.0 0.0 0.01 0.61 0.61 96 1014.5
20260505052518 41 0 0.0 0.0 0.01 0.61 0.61 96 1014.6
20260505052019 41 0 0.0 0.0 0.01 0.61 0.61 96 1014.6
20260505051541 41 0 0.0 0.0 0.01 0.61 0.61 96 1014.6
20260505051019 41 0 0.0 0.0 0.01 0.61 0.61 96 1014.7
20260505050525 41 0 0.0 0.0 0.01 0.61 0.61 96 1014.8
20260505041549 41 240 1.0 4.0 0.02 0.60 0.60 96 1014.9
20260505041018 41 245 2.0 4.0 0.02 0.60 0.60 96 1014.9
20260505040518 41 271 1.0 3.0 0.02 0.60 0.60 96 1014.9
20260505040042 42 265 1.0 2.0 0.01 0.58 0.58 96 1014.7
20260505035521 42 265 1.0 4.0 0.01 0.58 0.58 96 1014.7
20260505035017 42 239 1.0 4.0 0.00 0.58 0.58 96 1014.6
20260505034537 42 251 1.0 4.0 0.00 0.58 0.58 96 1014.5
20260505034017 42 243 2.0 4.0 0.00 0.58 0.58 96 1014.4
20260505033517 42 251 1.0 3.0 0.01 0.58 0.58 96 1014.5
20260505033034 42 0 1.0 3.0 0.01 0.58 0.58 96 1014.6
20260505032522 42 0 0.0 0.0 0.01 0.58 0.58 96 1014.5
20260505032019 42 0 0.0 2.0 0.01 0.58 0.58 96 1014.5
20260505031543 42 0 0.0 2.0 0.01 0.58 0.58 96 1014.4
20260505031018 42 250 0.0 2.0 0.01 0.58 0.58 96 1014.3
20260505030517 42 0 0.0 0.0 0.01 0.58 0.58 96 1014.3
20260505030047 42 0 0.0 0.0 0.01 0.58 0.58 96 1014.4
20260505025521 42 0 0.0 0.0 0.01 0.58 0.58 96 1014.3
20260505025020 42 0 0.0 0.0 0.01 0.58 0.58 96 1014.2
20260505024536 42 0 0.0 0.0 0.01 0.58 0.58 96 1014.2
20260505024018 42 0 0.0 0.0 0.01 0.58 0.58 96 1014.2
20260505023519 42 0 0.0 0.0 0.00 0.57 0.57 96 1014.2
20260505023035 42 0 0.0 0.0 0.00 0.57 0.57 96 1014.2
20260505022519 42 0 0.0 0.0 0.00 0.57 0.57 96 1014.3
20260505022018 42 0 0.0 0.0 0.00 0.57 0.57 96 1014.2
20260505021551 42 0 0.0 0.0 0.00 0.57 0.57 96 1014.4
20260505021017 42 0 0.0 0.0 0.00 0.57 0.57 96 1014.4
20260505020516 42 0 0.0 0.0 0.00 0.57 0.57 96 1014.5
20260505020052 42 0 0.0 0.0 0.00 0.57 0.57 96 1014.6
20260505015520 42 0 0.0 0.0 0.00 0.57 0.57 96 1014.5
20260505015020 42 0 0.0 0.0 0.00 0.57 0.57 96 1014.6
20260505014543 42 0 0.0 0.0 0.00 0.57 0.57 96 1014.6
20260505014016 42 0 0.0 0.0 0.00 0.57 0.57 96 1014.6
20260505013515 42 0 0.0 0.0 0.00 0.57 0.57 96 1014.7
20260505013041 42 0 0.0 2.0 0.00 0.57 0.57 96 1014.6
20260505012519 42 0 0.0 2.0 0.00 0.57 0.57 96 1014.7
20260505012022 42 250 0.0 3.0 0.00 0.57 0.57 96 1014.6
20260505011536 42 250 1.0 3.0 0.00 0.57 0.57 96 1014.8
20260505011018 42 244 1.0 3.0 0.00 0.57 0.57 96 1014.7
20260505010519 42 256 2.0 3.0 0.00 0.57 0.57 96 1014.7
20260505010056 42 252 2.0 3.0 0.00 0.57 0.57 96 1014.7
20260505005520 42 250 1.0 4.0 0.00 0.57 0.57 96 1014.7
20260505005021 42 255 2.0 4.0 0.00 0.57 0.57 96 1015.0
20260505004535 42 249 1.0 5.0 0.00 0.57 0.57 96 1015.0
20260505004018 42 252 1.0 5.0 0.00 0.57 0.57 96 1015.0
20260505003517 42 229 1.0 5.0 0.00 0.57 0.57 96 1015.1
20260505003045 42 254 2.0 5.0 0.00 0.57 0.57 96 1015.0
20260505002520 42 240 3.0 7.0 0.00 0.57 0.57 96 1014.9
20260505002017 42 253 3.0 7.0 0.00 0.57 0.57 96 1014.9
20260505001541 42 251 3.0 7.0 0.00 0.57 0.57 96 1014.8
20260505001023 42 243 3.0 7.0 0.01 0.57 0.57 96 1014.8
20260505000517 42 246 3.0 7.0 0.01 0.57 0.57 96 1014.8
20260505000048 42 243 3.0 7.0 0.02 0.57 0.57 96 1014.7
20260504235515 42 206 3.0 7.0 0.02 0.57 0.57 96 1014.8
20260504235018 42 252 3.0 7.0 0.03 0.57 0.57 96 1014.8
20260504234536 42 240 2.0 5.0 0.04 0.57 0.57 96 1014.9
20260504234019 43 211 1.0 4.0 0.05 0.57 0.57 96 1014.9
20260504233518 43 265 1.0 5.0 0.06 0.57 0.57 96 1014.9
20260504233041 43 251 1.0 5.0 0.07 0.57 0.57 96 1014.8
20260504232516 43 233 2.0 4.0 0.08 0.57 0.57 96 1014.9
20260504232015 43 246 1.0 4.0 0.09 0.57 0.57 96 1014.8
20260504231536 43 236 1.0 5.0 0.11 0.57 0.57 96 1014.9
20260504231017 42 239 2.0 5.0 0.11 0.56 0.56 96 1014.8
20260504230521 42 234 2.0 4.0 0.12 0.56 0.56 96 1014.9
20260504230039 42 250 2.0 4.0 0.12 0.55 0.55 96 1015.0
20260504225517 42 238 2.0 3.0 0.13 0.54 0.54 96 1014.9
20260504225019 42 0 0.0 3.0 0.14 0.54 0.54 96 1015.0
20260504224557 42 0 0.0 3.0 0.15 0.52 0.52 96 1014.9
20260504224015 42 239 1.0 2.0 0.15 0.52 0.52 96 1015.0
20260504223517 42 229 0.0 2.0 0.16 0.51 0.51 96 1015.0
20260504223040 42 0 0.0 0.0 0.16 0.50 0.50 96 1015.1
20260504222517 42 0 0.0 0.0 0.17 0.49 0.49 96 1015.2
20260504222018 42 0 0.0 0.0 0.19 0.48 0.48 96 1015.2
20260504221535 42 0 0.0 0.0 0.19 0.46 0.46 96 1015.2
20260504221020 42 0 0.0 0.0 0.19 0.45 0.45 96 1015.3
20260504220516 42 0 0.0 0.0 0.19 0.44 0.44 96 1015.3
20260504220035 42 0 0.0 0.0 0.19 0.42 0.42 96 1015.4
20260504215520 42 0 0.0 0.0 0.19 0.41 0.41 96 1015.4
20260504215018 42 0 0.0 0.0 0.19 0.40 0.40 96 1015.4
20260504214544 42 0 0.0 0.0 0.18 0.38 0.38 96 1015.5
20260504214016 42 0 0.0 0.0 0.18 0.36 0.36 96 1015.5
20260504213517 42 0 0.0 2.0 0.18 0.35 0.35 96 1015.6
20260504213035 42 0 0.0 2.0 0.17 0.33 0.33 96 1015.4
20260504212517 42 0 0.0 3.0 0.16 0.31 0.31 96 1015.4
20260504212019 42 227 0.0 3.0 0.14 0.29 0.29 96 1015.4
20260504211537 42 227 1.0 3.0 0.12 0.27 0.27 96 1015.3
20260504211018 42 236 1.0 4.0 0.11 0.26 0.26 96 1015.4
20260504210522 42 236 1.0 4.0 0.09 0.24 0.24 96 1015.5
20260504210040 42 246 2.0 4.0 0.08 0.23 0.23 96 1015.5
20260504205518 42 239 1.0 5.0 0.07 0.22 0.22 96 1015.5
20260504205019 41 248 3.0 5.0 0.06 0.21 0.21 96 1015.4
20260504204543 42 246 3.0 5.0 0.04 0.19 0.19 96 1015.5
20260504204017 42 251 2.0 7.0 0.03 0.18 0.18 96 1015.5
20260504203519 42 263 0.0 7.0 0.02 0.17 0.17 96 1015.5
20260504203037 42 246 2.0 5.0 0.01 0.16 0.16 96 1015.4
20260504202519 42 252 2.0 4.0 0.00 0.15 0.15 96 1015.3
20260504202019 43 252 2.0 4.0 0.00 0.15 0.15 96 1015.2
20260504201547 43 239 2.0 5.0 0.00 0.15 0.15 96 1015.2
20260504201016 43 260 2.0 5.0 0.00 0.15 0.15 96 1015.1
20260504200519 43 254 2.0 5.0 0.00 0.15 0.15 96 1015.1
20260504200052 43 237 2.0 5.0 0.00 0.15 0.15 96 1015.1
20260504195516 43 219 2.0 7.0 0.00 0.15 0.15 96 1015.0
20260504195019 43 259 2.0 7.0 0.00 0.15 0.15 96 1015.1
20260504194535 43 249 2.0 7.0 0.00 0.15 0.15 96 1015.0
20260504194016 44 243 2.0 7.0 0.00 0.15 0.15 96 1015.0
20260504193521 44 244 3.0 7.0 0.00 0.15 0.15 96 1015.0
20260504193044 44 250 2.0 4.0 0.00 0.15 0.15 96 1015.0
20260504192518 44 238 2.0 5.0 0.00 0.15 0.15 96 1015.1
20260504192017 44 240 2.0 5.0 0.00 0.15 0.15 96 1015.1
20260504191538 45 240 1.0 5.0 0.00 0.15 0.15 96 1014.9
20260504191023 45 242 1.0 4.0 0.01 0.15 0.15 96 1014.8
20260504190522 45 249 1.0 5.0 0.01 0.15 0.15 96 1014.7
20260504190036 44 229 2.0 5.0 0.02 0.15 0.15 96 1014.6
20260504185516 44 244 1.0 4.0 0.03 0.15 0.15 96 1014.8
20260504185019 44 235 2.0 4.0 0.04 0.15 0.15 96 1014.9
20260504184540 44 243 2.0 4.0 0.05 0.15 0.15 96 1015.0
20260504184017 44 244 1.0 3.0 0.05 0.15 0.15 96 1014.9
20260504183520 44 0 1.0 3.0 0.06 0.15 0.15 96 1014.9
20260504183036 43 0 0.0 0.0 0.06 0.15 0.15 96 1014.9
20260504182517 43 0 0.0 0.0 0.06 0.15 0.15 96 1015.0
20260504182021 43 0 0.0 0.0 0.07 0.15 0.15 96 1015.1
20260504181534 43 0 0.0 0.0 0.07 0.15 0.15 96 1014.9
20260504181016 42 0 0.0 0.0 0.06 0.14 0.14 96 1014.9
20260504180518 42 0 0.0 0.0 0.06 0.14 0.14 96 1015.0
20260504180033 42 0 0.0 0.0 0.05 0.13 0.13 96 1015.1
20260504175517 42 0 0.0 0.0 0.05 0.12 0.12 96 1015.2
20260504175018 42 0 0.0 0.0 0.04 0.11 0.11 96 1015.2
20260504174535 42 0 0.0 0.0 0.03 0.10 0.10 96 1015.1
20260504174021 42 0 0.0 0.0 0.03 0.10 0.10 96 1015.0
20260504173522 42 0 0.0 0.0 0.02 0.09 0.09 96 1014.9
20260504173035 42 0 0.0 0.0 0.03 0.09 0.09 96 1014.9
20260504172523 42 0 0.0 0.0 0.03 0.09 0.09 96 1014.9
20260504172017 42 0 0.0 0.0 0.03 0.08 0.08 96 1014.9
20260504171535 41 0 0.0 0.0 0.03 0.08 0.08 96 1014.7
20260504171018 41 0 0.0 0.0 0.03 0.08 0.08 96 1014.6
20260504170519 41 0 0.0 0.0 0.03 0.08 0.08 96 1014.7